• In Austria
  • List of Countries
  • For 7 days
  • Water Temperature
  • Satellite Maps
  • Weather Map
  • News
  • Weather Widgets
  • user-avatar
    Login

    Hourly Weather Kaharlyk

    Today, 26 September, Wednesday

    Time Temperature Precipitation Wind Pressure Humidity
    00:00 +8°C° 0 mm 6 mps 763 mmHg 58%
    01:00 +7°C° 0 mm 6 mps 763 mmHg 61%
    02:00 +7°C° 0 mm 6 mps 763 mmHg 63%
    03:00 +5°C° 0 mm 6 mps 764 mmHg 65%
    04:00 +6°C° 0 mm 5 mps 764 mmHg 67%
    05:00 +6°C° 0 mm 5 mps 764 mmHg 70%
    06:00 +5°C° 0 mm 6 mps 765 mmHg 68%
    07:00 +7°C° 0 mm 6 mps 765 mmHg 66%
    08:00 +8°C° 0 mm 6 mps 765 mmHg 64%
    09:00 +9°C° 0 mm 6 mps 766 mmHg 58%
    10:00 +10°C° 0 mm 6 mps 766 mmHg 52%
    11:00 +13°C° 0 mm 6 mps 766 mmHg 46%
    12:00 +13°C° 0 mm 6 mps 766 mmHg 43%
    13:00 +13°C° 0 mm 6 mps 766 mmHg 40%
    14:00 +14°C° 0 mm 6 mps 766 mmHg 37%
    15:00 +13°C° 0 mm 6 mps 766 mmHg 37%
    16:00 +13°C° 0 mm 5 mps 766 mmHg 37%
    17:00 +12°C° 0 mm 5 mps 765 mmHg 37%
    18:00 +11°C° 0 mm 4 mps 766 mmHg 40%
    19:00 +10°C° 0 mm 4 mps 766 mmHg 42%
    20:00 +9°C° 0 mm 3 mps 766 mmHg 45%
    21:00 +9°C° 0 mm 3 mps 766 mmHg 46%
    22:00 +8°C° 0 mm 2 mps 766 mmHg 47%
    23:00 +8°C° 0 mm 2 mps 766 mmHg 48%

    Tomorrow, 27 September, Thursday

    Time Temperature Precipitation Wind Pressure Humidity
    00:00 +7°C° 0 mm 2 mps 766 mmHg 49%
    01:00 +7°C° 0 mm 2 mps 766 mmHg 50%
    02:00 +7°C° 0 mm 2 mps 766 mmHg 51%
    03:00 +7°C° 0 mm 2 mps 765 mmHg 51%
    04:00 +6°C° 0 mm 2 mps 765 mmHg 52%
    05:00 +6°C° 0 mm 2 mps 765 mmHg 52%
    06:00 +7°C° 0 mm 2 mps 765 mmHg 49%
    07:00 +9°C° 0 mm 2 mps 765 mmHg 46%
    08:00 +10°C° 0 mm 2 mps 765 mmHg 43%
    09:00 +11°C° 0 mm 3 mps 764 mmHg 39%
    10:00 +13°C° 0 mm 3 mps 764 mmHg 35%
    11:00 +16°C° 0 mm 3 mps 764 mmHg 30%
    12:00 +17°C° 0 mm 4 mps 764 mmHg 28%
    13:00 +18°C° 0 mm 4 mps 763 mmHg 26%
    14:00 +19°C° 0 mm 4 mps 762 mmHg 24%
    15:00 +18°C° 0 mm 4 mps 762 mmHg 25%
    16:00 +18°C° 0 mm 3 mps 762 mmHg 27%
    17:00 +17°C° 0 mm 3 mps 761 mmHg 29%
    18:00 +17°C° 0 mm 3 mps 761 mmHg 30%
    19:00 +16°C° 0 mm 2 mps 761 mmHg 32%
    20:00 +15°C° 0 mm 2 mps 761 mmHg 33%
    21:00 +15°C° 0 mm 2 mps 761 mmHg 34%
    22:00 +14°C° 0 mm 2 mps 761 mmHg 35%
    23:00 +14°C° 0 mm 2 mps 761 mmHg 35%

    Day after tomorrow, 28 September, Friday

    Time Temperature Precipitation Wind Pressure Humidity
    00:00 +14°C° 0 mm 2 mps 761 mmHg 37%
    01:00 +14°C° 0 mm 2 mps 760 mmHg 38%
    02:00 +15°C° 0 mm 2 mps 760 mmHg 39%
    03:00 +14°C° 0 mm 2 mps 759 mmHg 42%
    04:00 +13°C° 0 mm 2 mps 759 mmHg 46%
    05:00 +13°C° 0 mm 2 mps 759 mmHg 49%
    06:00 +14°C° 0 mm 2 mps 759 mmHg 50%
    07:00 +15°C° 0 mm 2 mps 758 mmHg 51%
    08:00 +15°C° 0 mm 2 mps 758 mmHg 53%
    09:00 +17°C° 0 mm 2 mps 758 mmHg 51%
    10:00 +18°C° 0 mm 2 mps 758 mmHg 49%
    11:00 +20°C° 0 mm 2 mps 758 mmHg 48%
    12:00 +20°C° 0 mm 2 mps 757 mmHg 46%
    13:00 +21°C° 0 mm 2 mps 757 mmHg 44%
    14:00 +23°C° 0 mm 2 mps 756 mmHg 42%
    15:00 +23°C° 0 mm 2 mps 756 mmHg 42%
    16:00 +23°C° 0 mm 2 mps 755 mmHg 43%
    17:00 +21°C° 0 mm 2 mps 755 mmHg 43%
    18:00 +20°C° 0 mm 2 mps 755 mmHg 46%
    19:00 +19°C° 0 mm 3 mps 755 mmHg 48%
    20:00 +17°C° 0 mm 3 mps 755 mmHg 51%
    21:00 +17°C° 0 mm 3 mps 755 mmHg 51%
    22:00 +16°C° 0 mm 3 mps 755 mmHg 52%
    23:00 +14°C° 0 mm 3 mps 755 mmHg 52%

    29 September, Saturday

    Time Temperature Precipitation Wind Pressure Humidity
    00:00 +14°C° 0 mm 3 mps 755 mmHg 52%
    01:00 +14°C° 0 mm 3 mps 755 mmHg 52%
    02:00 +14°C° 0 mm 2 mps 754 mmHg 51%
    03:00 +14°C° 0 mm 2 mps 754 mmHg 52%
    04:00 +14°C° 0 mm 2 mps 754 mmHg 52%
    05:00 +13°C° 0 mm 1 mps 754 mmHg 53%
    06:00 +15°C° 0 mm 1 mps 754 mmHg 50%
    07:00 +16°C° 0 mm 1 mps 754 mmHg 46%
    08:00 +18°C° 0 mm 1 mps 754 mmHg 43%
    09:00 +20°C° 0 mm 1 mps 754 mmHg 40%
    10:00 +21°C° 0 mm 1 mps 754 mmHg 36%
    11:00 +23°C° 0 mm 2 mps 754 mmHg 32%
    12:00 +23°C° 0 mm 2 mps 754 mmHg 32%
    13:00 +24°C° 0 mm 2 mps 754 mmHg 31%
    14:00 +24°C° 0 mm 1 mps 753 mmHg 31%
    15:00 +24°C° 0 mm 2 mps 753 mmHg 34%
    16:00 +23°C° 0 mm 2 mps 753 mmHg 37%
    17:00 +23°C° 0 mm 2 mps 753 mmHg 40%
    18:00 +21°C° 0 mm 2 mps 754 mmHg 45%
    19:00 +20°C° 0 mm 2 mps 754 mmHg 50%
    20:00 +19°C° 0 mm 2 mps 755 mmHg 56%
    21:00 +18°C° 0 mm 2 mps 755 mmHg 59%
    22:00 +18°C° 0 mm 3 mps 755 mmHg 63%
    23:00 +17°C° 0 mm 3 mps 755 mmHg 67%

    30 September, Sunday

    Time Temperature Precipitation Wind Pressure Humidity
    00:00 +17°C° 0 mm 3 mps 755 mmHg 69%
    01:00 +17°C° 0 mm 4 mps 756 mmHg 72%
    02:00 +16°C° 0 mm 5 mps 756 mmHg 75%
    03:00 +15°C° 0 mm 5 mps 756 mmHg 77%
    04:00 +14°C° 0 mm 5 mps 756 mmHg 80%
    05:00 +13°C° 0 mm 5 mps 756 mmHg 82%
    06:00 +14°C° 0 mm 6 mps 757 mmHg 79%
    07:00 +14°C° 0 mm 6 mps 757 mmHg 76%
    08:00 +14°C° 0 mm 6 mps 758 mmHg 73%
    09:00 +16°C° 0 mm 6 mps 758 mmHg 67%
    10:00 +19°C° 0 mm 6 mps 758 mmHg 61%
    11:00 +20°C° 0 mm 5 mps 758 mmHg 55%
    12:00 +21°C° 0 mm 5 mps 758 mmHg 52%
    13:00 +22°C° 0 mm 5 mps 757 mmHg 49%
    14:00 +22°C° 0 mm 5 mps 757 mmHg 46%
    15:00 +22°C° 0 mm 5 mps 757 mmHg 47%
    16:00 +21°C° 0 mm 5 mps 757 mmHg 49%
    17:00 +21°C° 0 mm 5 mps 757 mmHg 50%
    18:00 +19°C° 0 mm 5 mps 758 mmHg 53%
    19:00 +17°C° 0 mm 5 mps 758 mmHg 56%
    20:00 +16°C° 0 mm 5 mps 758 mmHg 59%
    21:00 +16°C° 0 mm 5 mps 758 mmHg 60%
    22:00 +15°C° 0 mm 5 mps 758 mmHg 61%
    23:00 +14°C° 0 mm 5 mps 758 mmHg 62%

    1 October, Monday

    Time Temperature Precipitation Wind Pressure Humidity
    00:00 +14°C° 0 mm 5 mps 757 mmHg 63%
    01:00 +13°C° 0 mm 5 mps 757 mmHg 64%
    02:00 +13°C° 0 mm 5 mps 757 mmHg 65%
    03:00 +12°C° 0 mm 5 mps 757 mmHg 65%
    04:00 +12°C° 0 mm 5 mps 757 mmHg 66%
    05:00 +12°C° 0 mm 4 mps 756 mmHg 66%
    06:00 +12°C° 0 mm 5 mps 756 mmHg 65%
    07:00 +13°C° 0 mm 5 mps 756 mmHg 63%
    08:00 +14°C° 0 mm 5 mps 756 mmHg 61%
    09:00 +16°C° 0 mm 5 mps 756 mmHg 56%
    10:00 +19°C° 0 mm 5 mps 756 mmHg 51%
    11:00 +21°C° 0 mm 5 mps 756 mmHg 47%
    12:00 +21°C° 0 mm 5 mps 755 mmHg 44%
    13:00 +22°C° 0 mm 5 mps 754 mmHg 41%
    14:00 +23°C° 0 mm 5 mps 754 mmHg 38%
    15:00 +22°C° 0 mm 4 mps 754 mmHg 40%
    16:00 +22°C° 0 mm 4 mps 753 mmHg 42%
    17:00 +21°C° 0 mm 3 mps 753 mmHg 44%
    18:00 +20°C° 0 mm 4 mps 753 mmHg 47%
    19:00 +19°C° 0 mm 4 mps 752 mmHg 50%
    20:00 +18°C° 0 mm 4 mps 752 mmHg 54%
    21:00 +18°C° 0 mm 4 mps 752 mmHg 55%
    22:00 +16°C° 0 mm 5 mps 751 mmHg 56%
    23:00 +16°C° 0 mm 5 mps 751 mmHg 58%
    Show more